GFSMA_925_thetae_159.txt.gz
Theta_e
333 335 335 335 335 338 337 336 333 328 326 325 325 325 325 325 325 325 325 326 327 329 330 329 329 328 326 325 324 324 324 323 323 323 322 322 321 321 321 321 322 323 324
335 335 334 334 334 334 335 335 331 326 325 325 324 324 325 324 324 324 326 325 328 330 329 329 328 326 324 324 324 323 323 322 322 321 321 321 320 320 320 320 320 320 320
337 334 334 333 333 333 334 333 328 325 324 324 324 324 324 324 323 323 324 327 327 327 328 327 326 325 324 323 323 323 322 322 321 321 320 320 319 319 319 318 318 318 318
336 334 332 331 331 332 332 332 328 325 324 323 323 323 324 324 323 323 325 325 325 324 324 325 325 324 323 323 322 322 322 321 321 320 319 319 318 318 317 317 317 316 316
332 334 330 326 327 329 330 330 327 325 323 322 322 323 323 323 323 323 324 324 324 324 324 323 323 323 323 322 322 321 321 320 320 319 319 318 318 317 316 316 315 315 314
330 332 326 325 326 326 328 330 325 324 322 321 321 322 322 322 322 322 323 323 322 322 322 322 322 322 322 322 321 321 320 320 319 318 318 317 317 316 315 315 315 314 313
327 329 328 325 326 328 327 326 324 322 322 321 321 321 321 321 321 323 323 323 323 322 321 321 321 321 322 322 321 320 320 319 318 317 317 316 315 315 314 314 314 313 313
327 328 328 326 327 326 326 326 324 323 322 322 321 321 323 320 321 322 322 322 322 322 321 321 321 321 321 321 321 319 318 317 316 315 315 315 315 314 313 313 313 313 312
325 326 326 326 322 322 326 325 324 323 321 321 321 321 322 321 320 319 320 320 321 320 320 320 320 319 319 319 319 316 315 314 314 314 313 312 313 313 312 312 312 312 311
325 326 325 323 321 322 325 325 323 323 322 321 321 319 319 320 320 321 317 318 319 318 319 319 318 317 316 317 317 314 313 312 310 310 311 311 311 311 311 311 311 311 310
326 326 323 321 322 324 326 325 323 323 322 322 321 318 319 318 318 319 320 317 316 317 318 317 317 316 315 314 313 312 311 310 309 309 308 309 310 310 311 311 310 310 309
325 322 322 323 324 324 324 324 325 323 323 322 321 320 318 319 317 318 318 317 318 315 316 316 316 315 313 313 311 310 309 309 309 310 309 308 310 310 310 309 308 308 307
324 325 325 324 326 325 324 325 324 324 323 322 322 318 318 319 317 318 317 315 316 311 313 316 316 316 315 314 312 311 310 310 310 308 308 309 309 308 307 306 305 305 305
323 324 325 326 326 326 325 325 325 324 322 322 321 320 319 320 317 318 317 314 313 313 310 312 314 313 313 314 312 311 310 309 308 309 310 308 307 306 302 302 302 303 303
321 321 323 324 325 326 327 326 325 324 321 321 320 320 320 321 316 314 317 317 315 316 316 310 309 310 310 309 308 307 308 307 308 307 307 306 302 300 299 300 301 301 301
320 320 320 321 322 324 326 326 324 322 320 319 319 319 319 317 316 314 317 316 314 314 316 309 306 306 307 306 306 307 307 306 305 304 301 300 299 299 297 297 297 299 299
317 319 320 319 322 324 325 324 323 321 318 318 317 317 315 314 313 315 313 312 312 311 312 305 305 304 304 304 305 305 305 304 303 303 301 300 299 297 297 297 297 299 298
317 318 319 320 321 324 324 323 321 319 317 315 316 317 317 317 316 313 312 311 311 311 312 306 303 302 303 301 303 303 302 300 301 300 299 299 299 299 298 298 298 298 298
316 316 318 320 321 321 320 319 319 317 317 317 318 318 317 315 313 312 312 313 313 312 312 310 305 304 303 302 301 299 298 298 297 297 296 296 298 299 299 298 298 297 296
314 316 318 318 319 319 319 318 319 318 318 317 317 317 315 314 314 314 313 312 312 312 311 309 305 302 300 298 298 297 296 296 295 295 296 296 298 298 298 298 297 296 294
314 315 317 318 318 318 318 318 318 317 317 316 314 314 313 313 313 312 312 311 310 308 306 303 300 298 297 297 297 296 296 295 294 294 294 294 294 294 294 294 295 295 295
314 315 316 317 318 317 318 318 317 315 313 312 311 310 309 309 309 308 307 303 301 301 300 299 297 297 295 295 295 295 295 295 296 293 293 294 293 293 292 292 292 294 294
313 313 313 313 312 312 314 314 314 312 311 310 309 308 306 305 304 304 303 301 299 298 298 298 296 295 294 293 293 293 293 293 294 292 291 293 291 291 291 292 293 294 292
311 311 310 310 310 310 313 313 312 310 309 307 306 304 304 303 302 300 297 295 294 294 294 294 293 293 293 292 291 291 292 291 291 291 290 293 290 291 290 290 293 291 290
308 308 309 309 308 307 310 309 307 304 303 302 302 302 301 299 297 297 297 295 295 295 295 294 294 294 292 291 290 291 291 292 292 291 290 290 290 290 289 289 289 290 289
307 306 304 304 304 303 304 304 304 302 300 300 300 299 299 299 297 296 296 295 296 296 295 294 294 292 292 292 290 290 290 290 290 291 290 290 290 290 290 289 289 289 289

GFSMA_925_thetae_162.txt.gz
Theta_e
342 341 340 340 340 340 341 340 338 335 329 328 327 326 326 326 326 327 327 326 328 331 331 330 329 327 326 325 325 324 324 324 323 323 323 322 322 322 322 322 323 323 324
340 340 339 338 337 340 340 339 337 332 328 327 327 326 325 325 325 326 327 328 327 330 330 329 328 326 325 324 324 323 323 323 322 322 322 321 321 321 321 320 321 322 322
340 339 337 336 335 338 337 336 334 329 327 326 326 326 325 325 325 326 327 330 327 326 327 328 327 326 325 323 323 323 323 321 321 321 321 320 320 319 319 319 319 318 319
337 338 337 336 337 336 335 333 332 328 326 326 326 325 325 324 324 326 329 329 328 327 325 326 326 324 325 324 323 323 321 321 321 321 319 319 319 318 318 317 317 317 317
335 335 334 334 333 333 333 331 329 327 324 324 324 324 324 324 325 325 326 325 325 326 325 324 324 324 324 324 323 321 321 321 320 319 319 318 318 317 317 316 316 316 316
333 333 331 331 330 330 330 330 328 327 323 323 323 324 324 324 323 324 324 324 323 324 325 324 323 323 323 323 322 321 320 320 319 319 318 317 317 316 316 315 315 315 314
332 332 331 330 327 326 327 328 326 324 322 322 322 321 321 323 323 323 323 322 323 324 323 322 323 321 322 322 321 321 320 319 318 317 317 317 316 315 315 315 314 314 313
328 330 330 330 327 326 327 326 325 321 320 322 322 322 323 321 321 322 323 324 323 323 322 321 321 321 321 321 321 319 318 318 316 315 315 315 315 315 314 314 314 313 313
328 330 329 329 327 326 326 325 324 323 321 322 322 322 323 325 322 320 322 322 323 322 320 320 320 320 320 320 318 316 316 315 315 314 313 313 313 313 313 313 313 312 312
329 328 328 328 327 326 324 324 325 324 322 322 322 320 320 321 322 322 320 322 322 320 319 319 319 318 318 318 318 315 313 312 311 311 311 311 311 312 312 312 312 311 311
326 327 328 328 326 325 324 324 325 324 322 322 322 319 319 320 319 318 321 321 320 319 318 319 318 317 316 316 316 315 312 311 310 309 309 309 310 311 312 312 311 310 309
325 327 326 326 325 324 325 325 325 324 323 323 321 320 319 319 320 319 319 319 319 318 318 317 317 317 316 314 313 311 310 310 309 309 309 308 311 311 311 310 309 308 307
325 326 327 326 326 326 326 325 324 324 323 323 321 320 320 320 319 319 320 319 319 316 316 316 316 316 315 314 313 312 311 309 310 310 308 310 310 308 307 306 306 305 305
324 324 324 324 326 326 326 326 323 324 324 322 321 320 319 318 317 318 318 318 320 317 315 317 315 313 313 314 314 314 312 310 310 308 310 309 308 306 304 303 304 303 303
324 325 324 325 324 326 327 327 325 324 324 323 322 321 319 318 320 316 317 317 318 320 320 318 314 311 310 310 310 311 312 311 309 309 309 307 306 302 300 300 300 301 301
321 321 323 323 324 326 326 326 326 325 323 323 322 320 319 319 319 316 315 314 316 316 318 314 311 308 308 306 310 309 310 309 308 306 305 303 300 300 299 298 297 298 300
317 319 321 321 321 324 325 326 325 325 322 321 321 319 318 319 316 316 316 315 314 313 314 309 307 304 304 306 306 307 307 306 305 305 304 301 300 300 298 297 297 299 299
317 317 319 319 319 322 324 324 324 323 320 317 315 315 316 317 316 316 315 315 314 312 312 309 307 305 303 303 304 304 303 303 302 302 301 300 300 300 299 298 299 299 298
315 317 319 319 321 321 323 323 323 319 316 315 314 315 315 316 315 314 313 312 311 312 313 311 305 303 303 302 302 302 301 300 299 298 298 297 298 300 299 299 298 297 296
316 317 318 319 320 321 320 319 317 315 315 316 316 317 316 316 316 313 313 313 312 311 311 309 304 302 301 300 300 300 298 296 296 296 297 297 298 299 298 298 298 297 295
315 316 317 317 318 318 317 317 316 316 316 315 316 315 315 313 313 312 311 310 310 309 308 306 302 299 298 297 298 298 299 299 297 297 297 297 296 296 296 296 296 296 296
314 314 316 316 316 315 316 317 317 316 315 313 311 311 311 310 310 310 308 304 304 304 302 300 301 302 299 299 299 299 300 299 300 296 295 296 295 296 295 295 294 293 295
313 313 313 314 313 313 316 315 315 312 311 310 310 309 306 305 305 304 303 302 300 299 300 301 301 300 299 297 297 297 297 297 298 296 294 295 294 294 294 293 292 294 293
313 312 312 311 310 310 311 312 312 311 310 308 307 305 304 303 301 300 299 298 297 296 296 296 296 295 294 294 294 294 295 295 294 294 293 294 294 294 293 293 292 293 292
309 309 310 309 309 307 311 310 308 304 303 303 304 303 302 300 298 298 299 298 297 297 296 295 295 293 292 291 291 293 293 294 294 293 292 292 293 292 292 292 292 291 291
306 307 308 308 306 305 305 304 305 305 304 303 302 301 301 300 297 297 298 298 298 297 296 296 294 294 294 293 291 291 291 292 292 292 292 291 291 291 291 291 291 291 291

GFSMA_925_thetae_165.txt.gz
Theta_e
342 342 339 340 341 341 339 339 340 337 335 330 329 328 327 327 328 327 328 326 331 332 331 329 328 325 325 325 325 325 324 324 324 324 323 323 323 323 323 324 324 324 324
340 339 339 339 340 339 338 338 339 334 332 329 328 327 327 327 327 327 327 330 328 330 330 329 328 325 325 324 324 324 323 323 323 323 322 322 322 321 321 321 321 322 322
339 339 337 338 339 337 336 339 337 334 331 329 327 327 325 326 326 326 329 329 328 327 328 328 327 325 324 325 324 323 323 322 321 321 321 320 320 320 319 319 320 319 319
339 337 336 337 337 336 337 337 335 333 330 329 327 327 326 325 326 325 329 329 328 326 325 326 327 326 325 325 323 323 322 322 321 320 320 319 319 318 318 318 318 318 317
336 335 336 334 335 334 335 334 333 330 329 328 326 325 325 324 325 328 329 328 327 327 326 324 324 324 325 324 323 322 321 321 320 319 319 318 318 317 317 317 317 316 316
334 333 333 335 335 332 334 333 331 329 327 325 324 325 324 325 325 326 326 326 326 325 324 323 323 323 324 324 322 321 321 320 320 319 318 318 317 317 316 316 316 315 315
333 332 331 331 332 331 331 331 329 326 325 324 324 323 324 323 324 324 324 324 324 323 323 320 324 323 322 322 322 321 320 319 319 318 318 317 316 316 316 315 315 314 314
332 331 331 330 330 330 329 329 328 324 322 323 323 322 322 322 322 323 322 322 323 323 323 323 320 320 321 322 321 320 319 318 317 316 316 316 316 315 315 314 314 314 313
332 330 330 329 329 328 327 326 326 324 321 322 322 323 323 323 322 322 322 322 323 322 321 320 320 321 321 321 318 317 317 316 315 314 314 314 314 314 314 313 313 313 312
330 329 329 328 327 327 327 326 325 324 323 323 322 321 321 322 320 322 321 321 322 322 320 319 319 319 319 319 318 317 314 312 311 312 312 312 312 312 313 313 312 312 311
329 329 327 327 328 327 327 326 325 325 323 323 322 320 320 320 318 319 320 321 321 321 319 319 319 318 317 318 318 316 313 312 310 309 309 310 310 311 312 312 311 310 310
327 327 328 328 327 326 325 324 324 325 323 323 322 321 320 320 320 319 317 318 320 320 319 319 319 318 317 316 316 315 313 311 310 309 310 309 311 312 311 310 309 308 308
325 326 327 327 325 325 325 325 324 325 324 323 322 321 320 319 320 320 320 319 319 319 318 318 318 317 317 316 315 313 311 310 309 310 310 310 310 309 308 307 306 306 305
327 327 326 326 326 326 325 326 325 325 324 324 323 321 319 320 319 319 320 319 319 318 317 317 317 317 317 316 316 315 312 313 310 310 310 310 309 307 306 304 304 304 304
326 326 326 327 325 326 326 326 326 324 325 324 323 321 319 319 318 319 319 319 320 320 318 317 316 315 314 313 313 313 313 313 310 310 310 309 307 305 302 302 300 299 301
322 323 324 324 324 326 327 327 327 324 324 324 323 321 320 318 318 318 317 318 318 319 320 317 315 311 311 310 311 311 312 312 309 309 308 305 303 301 300 299 298 298 300
320 320 322 322 323 325 326 326 326 326 325 324 323 322 320 318 317 317 316 314 314 313 315 311 310 307 307 308 309 309 309 309 307 306 306 304 301 300 299 298 297 299 300
317 319 318 320 321 321 325 325 326 326 324 323 322 320 317 317 318 316 315 314 314 314 313 313 307 306 305 305 305 305 306 306 305 304 304 301 300 301 300 299 299 298 299
316 316 318 319 320 321 323 324 324 324 322 320 319 317 314 316 317 316 317 315 313 312 311 310 306 305 304 303 303 303 303 303 301 301 301 299 298 299 301 300 299 298 297
315 316 318 319 320 321 321 322 321 319 317 315 315 315 314 314 315 315 314 313 312 312 312 311 306 303 302 302 301 301 301 301 299 297 298 299 300 299 299 298 298 298 297
314 316 316 317 319 319 319 318 317 315 315 314 314 314 314 314 315 314 313 312 312 311 309 306 303 301 300 299 300 300 299 299 298 298 298 298 298 298 298 296 296 296 296
315 315 315 316 316 316 316 316 315 314 314 313 312 312 312 312 313 312 311 310 309 308 305 302 302 303 301 301 300 301 301 301 301 297 297 297 297 296 296 296 295 295 295
316 316 315 315 314 313 314 315 315 313 313 311 311 310 309 307 306 304 304 302 301 301 302 303 301 300 299 297 298 299 299 298 298 296 295 295 296 295 295 295 294 293 295
312 312 312 312 311 310 314 315 313 311 311 310 308 306 304 303 302 301 299 298 297 297 297 297 296 295 294 294 295 294 295 295 295 295 293 294 295 294 294 293 293 292 293
311 310 309 309 308 308 311 311 310 306 305 305 305 303 301 300 300 300 299 298 298 297 297 295 294 294 293 292 293 294 294 295 295 294 292 292 292 292 292 292 292 292 290
309 308 308 308 307 306 306 307 305 305 304 303 302 301 300 299 298 299 299 299 299 297 297 296 295 295 294 294 292 292 292 293 292 293 292 291 292 291 291 292 291 291 290

GFSMA_925_thetae_168.txt.gz
Theta_e
340 340 339 339 339 339 340 339 338 337 335 334 330 328 328 328 327 326 325 326 330 331 329 328 327 326 325 325 325 325 325 325 325 324 324 324 323 323 323 323 324 324 326
339 339 339 338 338 338 338 338 338 335 334 331 328 327 328 327 326 325 326 329 328 329 330 328 326 326 325 325 324 324 324 323 323 322 322 322 322 322 322 321 321 321 321
340 338 336 336 337 336 337 337 336 334 333 329 328 326 327 327 325 327 328 328 328 327 326 327 327 327 326 324 324 324 323 323 322 321 321 320 320 320 320 320 320 319 320
338 337 336 334 335 337 335 336 337 333 330 328 327 326 326 326 325 327 329 327 327 326 324 325 327 326 326 324 324 323 322 322 322 320 320 319 319 319 319 318 318 318 318
338 334 335 336 333 334 335 335 335 332 329 328 327 326 325 326 326 329 329 327 326 325 324 324 323 325 325 324 322 322 321 321 320 320 319 318 318 318 318 317 317 316 316
335 334 331 334 334 333 332 333 333 331 329 327 324 325 325 326 327 328 327 327 326 324 323 322 322 322 324 324 323 321 321 320 320 319 319 318 318 317 317 316 316 315 315
334 333 333 331 331 331 331 331 332 329 327 324 324 324 324 324 325 326 325 325 324 323 322 321 322 322 321 321 322 322 320 320 319 319 318 317 317 317 316 315 315 314 314
332 333 332 330 329 329 329 327 329 326 325 324 323 322 323 323 323 324 324 324 324 323 321 320 320 320 321 320 321 320 319 319 317 317 317 317 316 316 315 314 314 314 313
332 331 331 328 328 329 328 326 327 327 324 323 323 322 321 322 321 322 322 322 323 322 321 321 320 320 321 320 319 318 317 317 316 315 315 314 314 314 314 314 313 313 312
331 330 330 328 327 327 327 325 326 326 325 323 322 322 321 320 321 322 321 320 321 321 321 321 321 321 321 321 318 314 314 312 312 313 313 313 313 313 314 314 313 312 311
330 330 327 327 327 326 327 326 325 326 324 323 323 320 320 320 318 318 320 320 321 322 321 319 320 319 320 319 318 317 315 312 311 310 310 310 311 313 313 313 312 311 310
329 329 326 326 326 326 326 326 326 324 324 323 323 322 320 319 317 317 318 319 320 320 320 319 319 318 317 318 317 317 315 312 310 309 309 310 312 313 312 311 310 309 308
325 325 326 328 327 325 324 325 325 324 324 323 323 321 321 320 318 318 316 317 318 319 319 319 319 318 318 317 316 315 314 311 310 309 310 310 311 310 309 308 307 306 306
324 325 325 327 326 325 324 324 324 324 325 323 323 322 320 320 319 318 316 318 317 317 317 317 318 318 317 317 316 315 314 312 311 310 310 311 309 308 307 306 305 304 303
325 325 325 325 325 325 326 325 325 324 324 323 323 322 321 320 319 318 318 318 318 317 316 317 316 316 317 316 315 315 314 313 312 310 311 310 308 307 304 303 302 300 301
323 323 323 324 324 324 325 326 325 325 325 324 324 323 321 320 319 318 318 319 318 318 317 316 314 315 314 313 312 312 312 312 312 311 311 308 306 303 302 301 299 298 299
320 319 320 322 323 323 324 326 327 326 325 325 324 323 321 320 318 319 319 318 318 315 312 309 310 310 309 309 310 310 311 311 309 308 307 306 305 302 301 300 298 298 300
318 318 318 319 321 322 325 325 326 326 325 324 324 323 321 318 317 318 318 317 314 314 314 311 307 308 307 307 307 307 308 308 307 306 305 305 302 302 301 300 299 299 299
316 317 318 318 320 321 322 324 325 325 325 324 323 320 317 316 316 317 316 315 316 316 314 312 307 305 305 305 305 304 305 305 305 304 303 302 301 300 301 301 300 299 298
316 316 318 319 319 320 322 323 323 322 320 318 317 316 315 315 316 315 315 316 314 311 311 310 306 303 303 302 302 302 302 302 301 299 298 299 300 299 299 300 298 299 298
315 316 318 319 318 320 320 320 319 317 315 314 314 313 314 314 315 316 315 312 311 311 309 306 304 302 301 300 301 300 300 299 299 298 298 298 298 297 297 297 296 297 298
315 316 316 316 316 315 316 316 315 314 313 313 313 313 313 312 312 311 309 309 308 308 306 303 302 301 301 300 300 300 300 301 300 298 297 297 297 297 296 296 296 295 295
315 314 314 314 313 313 315 315 315 314 313 312 311 310 308 306 307 305 303 301 301 302 302 301 298 296 296 296 297 297 297 297 296 294 295 294 295 295 295 295 294 293 293
313 312 312 312 311 311 314 314 313 312 310 309 307 305 304 302 300 299 298 297 297 297 297 297 295 293 293 294 294 294 294 295 295 294 293 293 292 293 293 293 293 293 292
311 310 310 310 309 309 312 312 309 306 304 302 301 301 300 300 300 298 297 297 296 296 296 295 295 294 294 294 293 293 292 292 292 293 291 291 292 291 291 292 292 291 291
309 308 308 308 307 307 307 306 304 303 302 301 300 300 299 300 300 299 299 298 296 296 295 295 294 295 293 293 292 292 291 291 291 291 292 290 291 291 290 291 290 290 289

GFSMA_925_thetae_171.txt.gz
Theta_e
339 340 339 339 339 339 338 338 337 335 335 335 329 328 332 329 327 326 326 329 331 327 329 328 326 327 325 326 326 325 325 324 325 324 324 324 324 323 323 323 323 325 326
339 339 338 338 337 338 337 337 338 336 333 331 327 329 329 327 325 325 326 330 329 327 329 327 327 326 327 326 324 325 324 323 323 323 322 322 322 322 321 321 322 322 322
338 336 337 336 336 337 337 337 337 335 334 329 327 327 327 326 325 326 328 328 329 327 327 327 328 326 327 325 324 323 323 323 322 321 321 321 321 320 320 320 320 319 319
340 338 335 334 333 335 335 335 336 334 331 328 326 327 326 325 326 327 328 327 328 327 324 325 328 326 326 325 324 323 322 322 321 320 320 320 320 319 319 319 318 317 318
338 336 336 334 334 334 335 335 335 333 329 327 326 326 326 326 329 328 327 327 326 325 324 324 323 324 325 324 323 321 321 321 320 320 320 319 318 318 318 318 318 317 316
334 334 332 335 334 333 333 334 332 330 328 328 325 326 326 327 328 328 327 326 325 324 323 322 323 321 324 324 323 321 320 320 320 320 319 318 318 318 317 316 316 316 316
335 334 333 332 332 330 331 330 330 329 326 325 324 324 325 327 328 328 327 326 325 324 322 321 322 322 321 319 323 321 320 320 319 319 318 318 318 317 316 316 315 315 315
333 332 333 330 331 330 328 328 329 327 325 325 324 323 324 324 325 325 326 325 325 323 322 322 321 320 320 321 321 320 320 319 319 318 318 317 317 316 316 315 315 314 314
332 332 332 330 329 328 328 326 327 328 325 324 324 322 321 323 322 323 324 324 324 323 322 321 320 320 320 318 318 318 316 317 317 316 316 316 316 316 315 314 314 313 313
332 331 331 329 326 327 327 326 325 326 325 324 323 322 320 321 321 321 321 322 322 323 322 321 321 320 320 319 319 317 314 313 314 314 314 314 314 315 315 314 313 312 311
330 331 330 328 326 326 325 326 324 324 325 324 323 321 321 320 319 319 320 320 319 320 321 321 321 321 321 321 318 316 314 312 311 310 311 312 312 314 314 313 312 311 310
329 330 328 326 325 325 325 325 325 324 325 324 323 322 321 319 318 317 318 319 319 320 320 320 320 320 320 319 318 318 316 314 311 310 309 310 312 314 313 312 311 309 308
328 327 326 326 326 325 324 325 325 325 325 323 322 322 320 319 319 318 318 318 319 320 320 319 318 318 318 318 317 317 316 315 312 310 309 310 313 311 310 309 308 308 307
324 324 324 327 327 325 325 324 325 325 324 323 323 323 322 321 320 318 317 317 317 317 318 318 317 318 317 317 316 316 315 313 311 310 310 311 311 309 308 307 306 304 304
325 324 324 325 326 324 324 324 324 324 324 324 323 323 322 320 320 319 317 317 317 317 316 316 317 318 317 317 316 316 315 314 312 311 310 312 309 307 306 305 303 302 301
324 324 325 325 325 324 326 325 325 324 324 324 323 323 323 321 320 319 316 318 317 317 316 313 313 315 315 315 315 314 313 312 312 311 312 310 307 305 303 303 301 300 300
321 320 321 322 323 323 324 325 326 325 325 325 324 323 322 322 320 319 317 318 318 318 311 308 310 310 310 311 311 311 312 312 312 310 309 307 305 304 303 301 300 299 300
318 318 318 319 321 322 323 324 325 324 325 325 324 323 322 322 320 318 318 318 318 315 312 309 309 309 309 308 308 309 310 310 308 307 306 306 305 303 302 301 300 300 299
316 316 317 317 319 321 322 324 324 325 325 324 323 322 322 317 316 317 317 316 314 315 314 313 307 307 306 305 305 305 305 305 306 305 305 303 302 301 301 302 301 300 299
317 317 318 319 319 321 322 323 324 323 322 320 318 318 317 316 316 316 315 314 314 313 313 310 306 304 304 304 303 303 303 303 302 301 299 299 300 300 299 301 300 299 299
317 318 319 319 319 320 322 322 321 319 316 315 314 314 315 315 315 315 315 314 313 312 310 307 304 302 301 300 300 299 300 299 298 297 298 298 298 297 297 297 296 296 298
315 316 316 317 317 317 319 319 316 314 313 313 314 314 313 313 313 313 312 311 311 310 306 302 301 299 298 298 298 298 298 299 297 297 297 295 296 296 295 295 296 295 294
314 314 314 314 313 313 314 314 314 313 313 312 312 311 308 306 307 305 304 302 302 303 302 302 298 296 295 295 296 296 296 296 295 294 294 293 294 294 294 294 295 294 293
313 313 313 313 312 312 315 314 313 311 309 307 306 304 303 302 301 301 299 298 297 296 296 295 294 293 293 293 294 293 293 294 293 291 292 292 292 291 290 292 292 293 292
311 311 311 311 310 310 312 311 309 305 302 301 300 300 299 299 297 297 296 295 296 297 296 296 295 295 295 293 292 292 292 292 292 291 291 290 291 290 290 291 291 291 290
309 309 309 309 309 306 306 307 307 303 301 300 300 300 301 299 299 298 297 296 295 295 294 294 295 293 293 292 291 290 290 290 290 290 291 290 291 291 290 290 290 290 290

GFSMA_925_thetae_174.txt.gz
Theta_e
340 340 340 339 339 338 337 337 336 336 334 335 333 332 333 330 328 327 329 330 329 329 328 329 328 328 328 327 326 326 326 326 326 325 325 324 324 324 324 325 326 327 328
339 339 338 338 338 338 338 337 337 336 334 333 328 330 332 328 327 327 330 330 327 328 328 329 327 328 327 326 326 325 324 324 324 324 323 323 323 322 321 321 321 322 323
339 339 338 338 337 337 337 337 337 337 334 331 328 331 330 327 326 328 330 328 327 328 327 328 327 328 327 326 325 324 323 323 323 323 322 321 320 320 320 320 320 320 320
337 334 336 336 335 335 335 336 337 336 331 327 328 328 327 326 326 328 328 328 327 326 324 326 328 327 327 325 324 324 323 322 321 321 321 320 320 320 320 319 319 319 318
339 337 334 334 334 334 334 334 335 334 329 326 326 326 326 326 327 329 328 327 325 325 324 324 323 325 326 324 323 322 321 321 321 321 320 320 319 319 319 318 318 317 317
338 337 335 334 334 333 334 334 334 331 328 326 326 326 325 327 328 328 328 327 326 325 324 323 322 323 325 324 323 322 321 320 320 320 320 319 319 318 318 317 317 317 316
335 336 333 334 334 333 332 333 331 329 325 325 326 326 327 328 328 327 327 327 326 324 323 322 321 322 321 321 323 322 321 320 319 319 319 318 318 317 317 317 316 316 315
333 334 333 331 332 329 330 330 328 326 325 325 324 324 324 324 325 326 327 326 325 324 323 323 322 322 320 321 321 318 320 319 319 318 318 318 317 317 316 316 315 315 314
331 333 332 331 330 330 328 327 327 328 325 324 324 323 323 325 323 323 325 325 325 324 322 321 322 321 320 320 319 318 316 318 317 317 316 317 317 316 316 315 315 314 313
331 331 329 331 329 328 327 326 325 326 327 324 323 322 321 321 321 323 322 323 324 323 323 322 321 321 320 320 319 318 315 314 314 315 315 315 315 316 315 314 314 313 312
330 331 331 330 326 325 326 325 324 325 326 325 324 322 320 321 320 319 322 321 321 322 323 322 321 320 320 320 319 318 314 312 311 311 312 313 313 315 315 314 313 311 310
329 330 330 329 327 325 325 324 325 324 324 323 324 323 321 319 318 318 317 319 319 320 320 320 320 320 320 320 318 316 315 314 313 311 310 310 312 315 314 312 311 310 309
328 329 328 327 326 324 325 324 325 325 324 324 323 322 322 321 319 318 319 318 319 319 320 318 319 320 320 320 318 317 316 315 313 311 310 309 314 314 311 310 309 309 308
328 327 325 325 325 325 324 324 324 324 323 322 323 322 322 321 319 319 319 318 318 317 318 318 318 319 319 319 317 317 316 315 313 311 310 310 313 311 309 309 308 305 305
323 323 323 324 326 325 324 323 324 323 324 324 323 323 322 322 321 320 319 318 317 318 317 317 317 316 317 316 316 315 313 313 312 311 311 312 311 309 308 307 305 303 303
323 324 323 324 326 324 323 324 324 324 324 323 323 323 322 322 322 320 318 317 317 317 316 312 311 314 315 315 314 314 313 312 312 312 311 312 309 306 305 304 303 301 300
323 322 323 324 325 324 325 325 325 324 324 323 323 323 322 322 321 320 317 317 317 317 311 308 309 309 310 311 312 312 312 312 312 312 311 309 306 304 304 304 302 300 301
319 320 320 321 321 322 324 324 325 325 324 324 324 323 323 322 321 320 318 317 318 317 314 308 308 309 310 309 310 310 311 311 310 307 306 306 306 305 303 302 301 300 299
316 317 317 318 319 321 322 323 324 325 325 324 324 323 322 320 318 317 317 317 317 315 313 311 307 306 305 305 306 306 306 307 306 306 305 304 303 302 301 303 301 300 300
316 316 317 317 318 321 321 323 323 323 322 322 321 320 319 319 317 316 315 315 315 314 313 311 306 304 304 304 304 304 303 303 302 300 299 300 301 301 300 301 300 299 299
316 317 318 318 319 321 321 322 322 321 318 316 315 316 315 315 315 315 315 314 314 312 310 307 304 302 301 300 299 299 299 298 297 297 297 297 298 297 297 297 296 295 296
316 317 317 317 319 319 319 320 319 315 313 313 314 315 314 313 313 313 313 312 311 310 308 304 300 298 296 296 297 297 298 298 296 295 296 295 295 295 295 295 295 295 294
315 315 315 315 314 313 317 316 314 313 313 312 312 311 310 308 309 308 305 305 304 303 302 301 297 295 294 294 295 295 295 295 293 292 293 293 293 292 292 293 293 294 294
314 313 313 312 312 312 313 313 313 312 311 309 308 307 307 305 303 302 301 298 296 296 294 293 293 293 293 293 293 293 294 292 291 291 291 291 290 290 290 292 293 293 292
312 312 312 312 311 310 312 312 311 306 304 302 301 300 300 299 299 298 296 295 297 297 297 296 296 295 294 292 290 291 291 292 291 291 290 290 290 290 290 291 290 290 290
311 311 310 310 309 308 308 309 306 302 300 300 299 298 298 297 295 295 295 295 295 296 295 294 293 292 291 291 290 290 290 290 289 289 290 290 290 290 289 290 289 289 289

GFSMA_925_thetae_180.txt.gz
Theta_e
338 339 338 339 338 338 336 335 335 334 331 332 333 333 331 331 329 329 329 329 329 330 329 330 328 328 328 328 327 327 327 326 325 324 324 324 324 324 324 325 326 328 330
334 338 339 339 338 338 337 336 335 334 334 333 332 329 332 331 329 329 329 328 328 330 329 329 329 328 327 327 326 326 325 325 324 323 323 322 323 322 321 322 322 323 325
339 338 338 338 337 336 336 336 336 336 335 333 331 328 331 330 328 329 329 328 328 328 329 329 328 328 326 326 325 325 324 324 324 323 323 322 321 320 321 321 321 321 321
339 339 338 338 337 337 337 336 336 336 334 332 330 329 330 329 327 329 329 327 328 328 326 327 328 327 326 325 325 324 324 323 323 322 321 321 321 320 319 320 320 320 320
338 337 337 337 337 336 336 335 336 334 331 328 327 328 329 327 327 328 328 328 328 326 326 325 325 326 326 325 324 323 323 322 322 321 321 321 320 320 319 318 318 318 318
336 336 334 335 336 335 334 334 334 331 330 327 326 326 327 326 326 328 327 328 327 326 325 324 323 323 325 325 324 323 322 321 321 320 320 320 320 319 318 318 317 317 317
337 336 334 333 333 334 333 333 332 330 326 325 325 325 325 326 327 326 327 327 326 325 325 324 324 323 324 324 324 322 322 321 320 320 320 319 318 318 318 317 316 316 316
339 337 336 334 333 333 333 332 331 326 325 325 325 324 323 325 325 325 326 326 326 326 325 324 324 322 322 322 322 321 321 321 320 319 319 319 318 318 317 316 316 315 315
337 336 335 334 333 332 331 330 329 328 325 324 325 324 324 323 324 324 325 325 325 326 324 322 323 321 321 322 318 319 317 318 319 318 318 318 318 317 316 316 315 314 314
333 333 332 331 331 330 329 328 328 327 326 325 324 322 321 322 321 324 323 324 324 324 324 323 322 322 321 320 319 318 316 314 316 317 317 316 317 317 316 315 314 313 313
331 330 331 332 329 330 329 327 325 324 325 325 324 322 320 321 320 320 322 322 322 323 323 323 323 322 320 320 319 318 317 313 313 315 315 315 315 316 315 314 313 312 312
329 329 329 330 328 327 325 325 325 324 323 324 325 323 322 320 319 318 318 320 321 322 323 323 321 322 320 320 319 318 317 315 313 312 312 311 311 316 315 313 312 312 311
328 327 328 328 326 326 324 324 325 323 323 323 324 323 322 322 321 319 319 319 319 320 321 321 321 321 321 320 319 318 317 315 313 312 311 310 310 316 314 312 311 310 309
325 327 328 329 328 326 325 325 324 324 324 324 323 323 323 322 321 320 320 319 319 319 318 318 318 318 318 319 319 319 317 316 314 314 312 310 311 315 312 310 309 308 307
328 328 328 327 326 325 324 323 323 323 322 323 322 322 322 322 321 320 319 319 319 319 318 313 315 315 316 316 318 317 316 316 315 313 311 310 313 313 311 309 307 306 305
327 325 325 325 324 324 323 322 322 322 322 322 322 323 322 320 321 321 320 318 318 318 314 309 310 312 314 316 315 315 316 315 313 313 312 311 313 310 309 308 307 306 304
324 324 322 321 324 324 323 321 323 322 322 322 322 322 321 321 321 320 320 320 318 317 311 307 308 309 311 312 313 313 312 313 312 312 312 312 310 308 307 306 305 304 301
323 322 322 322 324 324 322 322 323 323 320 319 320 319 322 322 321 321 320 319 318 316 313 308 307 307 307 308 308 309 308 308 308 307 307 307 306 306 305 304 303 301 301
320 320 320 321 323 324 323 323 324 324 322 320 321 322 322 321 320 319 319 317 316 315 315 311 306 305 305 306 306 305 305 305 305 303 303 302 302 301 302 302 302 301 301
318 317 318 318 318 320 321 322 323 323 321 320 321 320 319 319 319 318 316 315 314 314 312 310 305 303 303 302 303 301 299 298 298 297 300 301 301 301 300 302 301 299 299
316 316 316 316 317 318 321 322 322 320 318 317 316 316 315 315 315 315 314 313 314 311 309 306 303 300 298 298 298 297 296 295 295 296 295 296 297 297 296 297 297 296 296
316 316 317 318 318 319 321 320 320 316 315 315 314 314 313 313 312 311 310 311 310 310 306 301 297 295 294 294 295 296 296 296 294 293 293 293 293 293 294 295 296 296 295
316 316 316 317 316 315 319 316 316 314 314 313 312 312 310 308 309 307 303 302 301 300 299 297 293 292 292 292 292 293 293 291 290 290 291 291 290 290 290 292 294 294 294
315 315 314 313 313 312 315 314 313 312 311 310 309 309 306 302 301 301 298 294 294 293 293 293 292 291 290 290 292 292 291 291 290 289 289 289 289 289 289 292 292 292 291
313 312 312 311 309 308 312 312 312 309 306 302 302 301 300 298 298 297 296 297 296 296 295 294 293 293 292 291 289 289 289 289 289 289 290 290 289 289 288 289 289 288 288
309 308 307 307 307 306 311 310 309 304 300 298 298 297 297 297 296 297 296 295 293 291 291 290 289 289 289 288 289 289 289 289 288 288 289 289 289 289 288 288 288 287 287

GFSMA_925_thetae_183.txt.gz
Theta_e
338 339 339 338 336 336 336 334 335 333 326 330 332 332 331 332 331 331 331 329 330 330 331 329 329 328 329 328 327 326 326 325 325 325 325 324 323 324 324 325 327 329 331
335 338 339 338 338 338 337 335 334 334 332 332 332 330 331 331 331 331 332 330 329 330 331 330 329 328 328 327 326 326 325 325 324 323 323 323 324 323 322 322 322 325 326
335 335 337 338 337 337 336 335 334 334 334 332 331 329 331 331 330 331 331 330 329 328 329 329 328 328 327 326 325 325 324 324 323 323 322 322 322 322 321 323 322 321 321
336 337 338 337 337 336 336 336 336 335 334 331 330 329 330 330 330 328 329 329 328 329 327 326 328 327 326 325 325 324 324 323 323 322 322 321 321 320 320 319 320 320 321
338 338 338 337 337 337 336 336 335 334 332 330 328 328 329 329 328 327 328 328 327 327 327 325 326 327 326 325 325 323 323 323 322 322 321 321 320 319 319 319 319 319 319
336 337 337 336 336 336 335 334 332 332 331 329 326 326 326 327 326 327 328 328 327 326 325 325 324 325 325 325 324 323 322 321 321 321 321 320 320 319 318 318 318 318 317
336 335 335 334 335 335 333 333 332 328 326 326 327 326 326 326 327 327 326 326 327 326 325 323 323 323 324 324 324 323 322 321 321 320 320 319 319 319 318 317 317 317 317
337 336 334 333 333 334 333 332 331 326 325 325 327 327 329 328 326 325 325 326 326 326 325 324 324 323 323 322 322 322 321 321 320 320 320 319 318 318 317 317 317 316 316
338 337 335 334 333 333 332 331 330 328 325 324 324 327 329 329 326 324 324 326 325 325 325 323 323 322 322 322 319 320 320 320 319 319 319 319 318 317 317 316 316 316 315
337 336 335 334 333 332 331 329 329 328 326 324 323 322 322 324 327 326 323 324 324 324 324 323 323 322 321 321 318 319 317 317 318 318 318 318 318 317 316 315 315 315 314
335 333 332 331 331 329 328 328 327 326 325 325 325 322 321 321 320 325 325 323 322 324 324 323 323 322 321 321 319 317 318 315 314 316 316 316 317 317 316 315 314 314 313
331 330 329 331 330 329 328 327 325 324 324 321 323 324 323 321 321 321 323 323 322 321 322 323 323 322 322 320 320 319 317 316 314 313 312 312 313 317 315 314 314 313 312
330 329 329 330 329 328 325 324 325 324 323 323 323 324 323 321 321 321 320 320 322 320 321 321 321 321 321 321 320 319 318 316 314 312 311 311 310 316 314 313 313 311 310
329 327 327 328 327 326 324 324 324 324 324 324 323 323 322 322 321 320 320 320 320 320 318 317 317 318 319 319 320 319 318 317 314 313 312 311 310 315 313 312 310 309 308
326 325 328 328 326 326 325 324 324 323 323 323 323 323 322 321 321 321 319 319 320 321 319 312 313 313 315 316 317 317 318 316 316 315 314 311 311 314 312 311 309 307 306
326 327 328 327 327 325 323 322 322 322 321 322 321 322 321 321 321 320 320 319 318 318 314 309 309 310 313 314 315 316 316 315 315 314 314 311 313 312 311 309 308 307 305
327 326 324 324 324 323 323 322 322 321 321 320 320 320 321 321 321 320 320 319 318 317 311 307 308 309 310 312 313 313 312 313 311 311 312 311 311 309 309 308 306 305 302
324 323 321 321 324 322 322 321 322 321 320 320 319 320 321 321 320 320 320 319 317 316 313 308 306 306 307 308 308 309 308 308 307 307 307 306 306 306 306 305 304 302 301
322 321 321 322 324 323 322 322 323 323 321 321 320 321 321 321 320 320 319 318 316 314 313 310 305 304 304 305 305 305 305 305 304 303 303 303 303 303 303 302 303 301 301
320 320 320 321 323 323 323 323 323 322 321 320 321 320 320 319 319 318 317 315 314 313 311 308 304 302 302 301 302 299 298 298 297 298 301 300 300 299 300 300 300 299 299
317 317 318 318 318 320 322 322 322 320 319 317 316 316 316 316 316 315 314 313 312 310 307 304 302 299 297 297 298 297 296 295 294 294 294 295 294 295 296 296 297 296 297
316 316 316 316 317 318 321 321 320 318 316 315 314 314 313 312 310 309 308 309 309 308 303 297 297 296 294 294 294 295 296 298 298 292 293 292 291 291 292 294 295 296 295
316 317 317 317 318 318 319 318 318 315 314 312 312 311 308 306 307 304 300 299 298 297 296 294 293 292 292 292 293 293 292 292 291 290 291 292 290 290 290 293 294 294 294
315 315 315 315 314 312 315 315 314 313 311 309 309 308 304 298 297 297 295 295 294 294 293 292 292 291 290 290 291 291 291 291 290 290 290 291 290 290 289 290 291 290 291
313 313 312 311 310 308 313 313 312 309 306 302 300 300 299 298 297 296 296 295 294 294 294 293 293 292 292 290 289 290 290 290 290 290 289 290 289 289 289 289 288 288 287
310 310 308 308 307 306 310 311 307 303 300 299 299 299 299 299 297 296 293 291 290 289 289 288 288 288 288 288 288 289 289 290 290 290 288 288 289 288 289 289 288 287 287

GFSMA_925_thetae_189.txt.gz
Theta_e
341 340 342 342 342 342 341 340 338 338 332 331 333 334 332 332 333 333 332 328 330 331 332 330 331 329 329 328 328 327 326 326 325 325 326 327 326 326 326 328 329 331 332
341 340 340 341 343 341 340 339 337 336 334 333 334 333 332 333 333 333 332 330 329 331 331 330 330 329 327 327 327 326 326 325 324 324 323 324 324 324 324 326 326 327 328
339 340 339 342 340 339 338 336 338 337 336 335 333 331 331 333 333 333 332 331 330 328 329 330 329 329 328 327 326 325 325 325 323 323 323 323 323 323 322 322 323 324 324
341 341 341 341 338 338 337 338 337 338 337 332 331 331 331 331 332 332 332 331 330 330 327 328 328 328 327 327 326 325 323 324 323 323 323 322 322 322 322 321 321 321 321
341 340 339 338 338 338 338 338 338 334 332 332 332 332 331 332 331 332 332 331 332 330 329 327 327 328 327 326 325 323 324 323 323 322 322 322 322 321 321 321 320 320 320
340 340 340 339 339 337 338 337 334 334 332 331 331 331 331 331 331 332 332 331 330 330 328 328 326 326 325 326 325 323 322 322 322 322 321 321 321 321 320 321 320 320 319
340 340 337 336 336 338 337 336 334 333 332 332 331 330 329 329 330 330 331 330 330 330 328 328 328 326 325 324 325 323 322 322 320 320 320 320 320 320 320 320 319 319 319
339 337 335 335 334 337 335 334 333 332 332 331 329 328 330 330 329 328 329 329 329 329 329 328 327 325 324 323 323 322 322 322 320 320 320 319 319 319 319 319 318 318 318
338 337 336 336 335 336 334 334 333 332 331 331 330 328 329 330 329 328 328 328 328 328 327 327 327 324 324 323 321 321 321 321 321 321 320 319 319 318 318 317 317 317 317
339 338 337 336 336 337 336 334 333 333 331 329 329 328 327 326 329 328 326 326 327 327 326 326 325 323 322 322 321 321 319 320 320 320 320 319 318 317 317 317 316 316 316
339 339 337 336 336 334 335 333 331 330 329 329 328 328 326 326 325 326 328 326 325 325 325 325 323 323 322 322 320 320 318 318 318 318 319 319 319 318 317 316 315 315 314
340 339 338 336 334 333 332 331 329 330 329 327 327 326 326 326 326 325 328 326 324 325 324 323 323 323 323 323 321 319 318 317 316 316 315 314 318 318 317 316 315 314 314
338 337 336 335 333 332 330 329 329 329 328 326 325 326 326 326 326 325 324 324 325 323 320 318 318 319 320 321 321 319 318 317 315 314 313 311 312 316 316 316 314 313 312
337 336 335 333 332 331 329 329 328 327 327 326 325 324 324 325 324 325 324 323 324 321 315 313 314 315 316 318 319 319 318 317 315 313 313 312 312 312 315 315 313 312 311
324 335 333 332 331 330 328 327 328 327 326 326 325 325 324 325 325 324 323 322 323 324 319 310 311 312 313 314 316 318 318 317 316 314 313 313 314 313 315 314 312 309 309
322 331 331 330 329 328 327 327 326 326 326 325 325 324 325 324 323 323 321 322 320 321 316 309 307 309 311 312 313 315 315 314 315 315 314 314 313 314 313 310 309 308 306
321 329 329 329 328 328 327 325 326 325 325 324 324 323 324 324 323 322 322 321 320 318 312 307 306 307 308 310 311 312 312 311 309 309 310 310 310 309 308 308 307 305 304
325 326 328 328 327 327 325 324 324 324 324 323 322 323 324 322 321 320 321 319 318 315 313 307 304 304 305 306 307 308 307 307 306 305 306 305 305 305 305 305 304 303 303
325 325 326 327 326 324 324 324 324 323 322 321 321 323 322 321 322 320 319 317 315 313 311 308 303 303 303 304 305 304 303 302 302 302 302 301 301 301 303 303 303 303 301
325 325 324 324 324 322 322 323 323 323 323 322 320 321 321 321 319 317 316 314 312 311 309 306 303 302 302 302 302 302 301 300 300 300 298 298 298 298 299 299 299 299 299
323 322 321 324 324 323 322 322 322 320 319 318 318 318 318 317 317 316 314 311 311 308 306 304 303 303 304 303 302 302 302 299 296 296 298 295 296 295 297 297 296 297 297
320 320 321 323 323 322 322 322 321 318 317 315 313 312 312 311 310 309 309 309 308 306 303 303 301 299 298 298 298 298 298 298 299 293 294 294 293 293 294 293 295 294 294
319 320 320 321 322 321 321 320 319 316 313 311 310 309 304 304 305 303 301 299 299 298 298 297 296 295 295 295 296 295 295 295 294 292 293 294 293 293 292 293 291 292 292
319 320 319 319 320 318 319 319 316 311 307 306 308 306 303 301 300 299 298 297 296 296 295 295 294 293 293 293 293 294 294 294 294 291 289 293 292 291 292 291 290 289 289
317 317 318 318 316 313 316 317 314 307 304 302 303 303 302 301 301 299 296 295 294 294 294 293 293 292 292 292 292 292 292 293 293 291 287 289 289 288 290 290 289 289 289
314 314 313 314 312 308 309 313 310 304 304 302 301 301 300 299 298 296 294 293 293 292 292 291 291 290 289 289 288 288 289 290 290 291 286 287 287 287 288 287 287 288 287

GFSMA_925_thetae_192.txt.gz
Theta_e
341 341 340 341 342 341 340 339 340 337 336 333 332 334 333 333 333 332 329 326 330 332 331 331 330 329 328 327 327 326 325 326 324 326 325 324 325 327 328 329 329 331 332
340 340 340 340 340 341 338 339 338 336 334 331 333 334 331 333 333 332 332 330 327 330 331 330 330 328 328 326 326 325 325 324 324 324 325 324 323 323 323 325 327 328 329
340 339 339 340 339 339 339 339 337 336 333 334 334 331 331 330 333 332 332 330 329 327 330 330 329 329 327 325 325 325 324 324 324 323 323 324 323 323 322 322 322 323 324
341 337 340 339 339 338 338 336 336 336 336 335 332 330 329 331 333 332 332 331 330 328 327 328 329 328 327 326 325 324 323 323 323 323 323 323 323 322 322 321 321 321 321
338 337 338 338 338 335 333 335 328 334 334 332 331 330 331 331 329 330 331 330 330 329 328 327 327 327 327 325 324 323 323 323 322 322 322 322 322 322 321 321 321 321 320
340 338 339 337 336 336 332 336 336 335 332 332 331 331 331 330 329 331 331 330 329 328 328 326 326 326 326 325 324 323 322 322 321 321 321 321 321 321 320 320 320 320 320
338 340 338 337 336 337 338 337 334 333 332 330 330 328 328 329 329 329 329 329 329 328 327 327 327 325 324 325 324 324 322 322 321 320 320 320 320 320 320 320 319 319 320
340 340 338 338 337 336 336 335 333 333 332 331 330 330 327 328 329 327 327 329 328 327 327 328 326 325 323 324 323 322 322 321 320 320 320 319 319 319 319 318 319 318 318
339 338 337 335 335 335 333 334 332 332 331 330 331 328 325 326 326 327 327 326 326 328 327 326 325 324 323 323 322 321 321 321 321 321 319 319 319 318 318 318 317 317 317
339 337 335 334 335 336 331 333 333 331 331 329 330 329 327 325 324 324 324 325 327 326 325 325 324 323 323 323 321 320 319 320 320 321 320 319 318 318 317 317 316 316 316
337 337 335 335 336 336 335 333 333 332 331 329 328 328 327 325 325 322 323 324 324 325 324 324 323 323 323 321 321 320 318 318 319 320 320 320 319 318 317 316 316 315 315
337 337 337 336 336 333 335 333 331 330 329 328 327 326 326 326 325 323 321 322 324 320 320 321 320 321 320 322 322 320 318 316 318 317 316 317 318 318 317 317 315 315 314
331 334 337 336 333 332 332 330 329 329 327 326 326 326 325 325 325 324 324 322 322 320 317 316 316 317 319 320 320 319 319 318 316 315 313 312 314 317 317 316 315 314 313
323 330 336 335 333 331 330 329 329 328 327 324 322 322 325 324 324 324 323 322 321 319 313 312 313 314 315 315 318 319 319 319 316 314 313 312 311 312 316 315 314 313 312
324 322 328 333 331 330 329 328 327 326 326 325 325 324 324 324 323 323 323 323 322 319 316 308 310 310 312 314 316 317 318 317 316 314 313 312 314 314 315 315 313 311 310
324 320 322 330 330 328 328 327 327 325 326 325 324 323 324 323 322 322 322 320 321 319 312 309 307 308 311 312 313 314 313 313 313 313 313 313 313 314 312 311 309 308 307
320 321 321 328 328 327 327 326 326 325 324 323 323 323 323 322 322 322 321 320 319 317 309 306 306 307 308 309 310 311 310 309 308 308 308 308 308 308 307 307 306 306 305
322 321 327 326 327 327 325 325 324 324 323 323 322 323 323 321 321 321 320 319 317 315 311 306 304 304 305 306 307 307 306 305 304 304 304 303 304 305 304 304 303 303 304
326 328 324 325 326 325 324 324 323 323 322 321 323 323 322 321 320 320 319 316 315 313 311 306 303 303 303 304 302 301 300 300 299 299 299 300 300 301 301 302 302 302 301
326 325 325 324 324 324 324 323 322 322 321 321 322 321 321 320 318 318 316 313 311 309 308 306 304 303 303 303 303 300 298 299 297 297 297 298 297 299 299 297 298 298 298
324 322 323 324 323 323 323 322 322 322 320 319 319 319 318 317 316 315 314 310 309 307 306 304 303 301 299 298 298 299 297 296 294 294 294 294 294 294 294 295 296 296 295
323 323 323 324 323 322 322 322 321 319 317 316 314 313 312 311 310 309 308 307 306 305 301 298 296 295 294 296 295 295 295 296 294 292 293 293 293 292 293 292 293 293 292
321 322 323 323 322 321 322 321 319 316 314 312 311 308 304 303 303 301 300 300 299 298 296 295 293 293 293 294 294 294 294 293 290 288 293 291 291 293 293 292 291 290 290
320 321 321 321 320 319 320 319 317 313 311 309 308 304 300 299 298 299 298 296 295 294 293 293 293 293 293 293 293 293 294 292 291 288 289 289 288 289 291 290 290 289 289
319 319 319 318 316 313 317 316 313 308 304 302 302 301 300 300 298 297 294 294 294 294 294 293 292 291 291 291 291 292 290 290 290 286 286 287 286 288 287 287 287 288 287
317 318 317 316 314 309 314 313 309 303 302 301 301 300 299 298 296 292 292 292 291 291 289 288 288 287 287 287 287 287 287 286 286 285 285 286 285 286 286 285 286 286 286

GFSMA_925_thetae_195.txt.gz
Theta_e
339 342 342 341 339 340 339 339 340 337 337 335 335 335 334 332 332 328 327 327 328 332 331 330 329 328 327 326 326 326 325 324 326 325 326 325 325 324 325 327 329 330 331
340 341 341 340 338 338 340 340 340 338 337 333 333 333 332 332 332 331 329 327 327 330 331 330 329 328 326 326 325 325 325 325 324 324 324 325 324 323 324 323 324 327 328
340 339 340 340 338 340 339 339 338 338 336 334 332 333 333 333 332 332 330 328 327 327 330 330 330 328 326 325 325 324 324 324 324 324 324 324 323 323 322 323 322 322 324
339 339 337 339 339 339 337 338 337 336 333 333 334 333 332 332 333 332 331 330 329 327 327 329 329 328 327 325 324 324 323 323 323 323 324 323 323 322 321 322 322 322 321
339 339 338 338 339 337 337 337 336 335 334 333 331 331 332 332 332 331 331 330 329 328 327 327 327 327 326 325 324 323 323 323 322 322 323 323 322 322 322 322 321 321 321
338 338 337 337 337 336 335 336 334 335 334 334 331 330 329 329 330 330 330 329 329 328 328 327 326 326 326 325 324 323 322 322 321 321 321 322 322 322 321 321 321 320 320
327 334 337 337 337 336 333 334 330 332 333 330 330 329 328 329 328 328 328 329 328 327 327 326 325 325 325 324 324 323 323 322 321 320 320 320 320 320 320 320 320 319 319
330 337 337 337 336 335 333 336 334 331 330 330 328 327 326 327 328 326 326 328 327 326 327 327 326 324 323 323 323 322 322 322 321 320 320 319 320 319 319 319 319 319 318
333 330 332 335 335 336 336 334 333 331 331 330 329 326 322 324 326 327 326 325 326 326 326 326 325 324 323 323 322 321 321 321 321 320 319 319 319 319 318 318 317 317 318
328 326 328 332 335 335 335 333 332 331 330 330 330 328 326 327 322 321 323 325 325 325 324 324 324 324 323 322 321 320 320 319 320 320 319 319 318 318 317 317 316 316 316
329 327 329 333 335 334 333 332 331 330 330 328 328 327 324 324 324 320 322 324 322 321 322 322 323 323 322 322 321 319 319 317 316 319 320 320 319 318 317 317 316 316 315
328 328 333 333 333 334 330 332 331 331 331 329 327 327 325 324 322 321 318 323 319 315 318 319 319 320 320 320 321 321 319 318 318 318 318 318 317 318 318 317 316 315 314
328 326 328 332 330 332 332 332 332 330 328 327 326 325 325 324 323 323 322 320 321 318 314 313 315 316 318 319 319 320 319 318 317 316 314 313 314 317 317 317 316 314 314
328 328 327 327 330 330 333 330 329 327 326 326 325 325 324 324 324 323 322 320 320 317 311 310 312 313 315 315 317 319 320 318 316 315 313 312 311 312 315 316 315 314 312
323 324 325 323 331 328 329 328 328 326 323 321 322 324 324 323 323 322 322 321 318 318 315 308 309 310 312 314 315 318 318 317 316 315 313 313 312 313 314 316 314 312 310
323 323 322 323 327 326 328 327 326 325 323 325 323 324 323 322 322 322 321 321 321 316 311 308 306 309 311 312 312 313 311 311 311 312 313 312 311 311 311 310 309 308 310
321 321 322 325 325 325 327 326 325 325 324 323 323 323 322 321 320 320 320 319 318 316 308 305 305 306 308 309 309 309 308 307 306 306 307 307 307 306 306 306 307 307 307
321 321 320 321 324 325 326 325 325 324 323 322 323 322 322 321 321 320 319 317 315 314 308 305 303 304 305 305 304 303 302 301 302 303 303 303 303 303 303 303 304 303 303
322 321 325 326 325 325 325 324 323 322 322 322 322 321 320 319 318 318 317 315 313 310 308 305 303 303 301 300 299 299 298 298 298 299 299 301 300 299 300 300 300 300 300
323 324 327 325 325 325 324 323 322 321 322 322 320 320 320 319 318 316 314 311 310 308 307 305 303 302 302 302 299 297 295 296 295 295 297 297 296 297 297 297 297 296 297
325 324 324 324 324 324 323 322 321 321 320 319 319 318 317 316 316 314 312 309 308 305 303 301 298 297 296 296 298 296 293 292 293 293 293 293 292 292 293 294 294 294 293
324 324 323 323 323 322 321 321 319 319 317 316 313 312 312 311 310 308 307 305 305 303 298 295 294 293 294 294 295 296 295 292 289 291 290 292 293 293 293 292 291 291 291
323 323 323 322 320 321 322 320 318 316 313 311 310 307 304 303 303 302 301 300 298 297 296 294 292 292 293 293 293 292 290 287 286 290 289 288 291 291 291 291 291 290 289
321 321 320 319 319 317 319 317 316 312 309 306 305 302 303 301 299 298 297 294 293 293 293 293 292 292 292 292 293 292 291 288 286 287 288 286 289 288 288 288 289 288 288
319 318 317 316 315 312 317 316 313 307 302 300 300 301 300 298 297 295 294 294 293 293 292 292 292 291 291 290 290 292 291 290 286 285 286 285 286 286 286 286 286 286 287
317 316 314 314 312 309 314 313 307 302 301 300 299 298 297 296 294 292 292 292 290 288 287 287 287 287 286 286 286 285 285 284 285 284 285 285 285 285 285 285 284 285 285